[[{"header":{"parameterUnit":"m.s-1","parameterCategory":1,"la1":30.2991,"la2":30.254,"lo1":-89.0895,"lo2":-89.0444,"dy":0.0017,"dx":0.0017,"nx":28,"ny":28,"refTime":"2023-10-21T21:00:00:Z","depth":0,"parameterNumber":2,"parameterNumberName":"U-component_of_WINDS"},"data":[0,0,0,0,0,0,0,0,0,0,0,0,0,0,0,0,0,0,0,0,0,0,0,0,0,0,0,0,0,0,0,0,0,0,0,0,0,0,0,0,0,0,0,0,0,0,0,0,0,0,0,0,0,0,0,0,0,0,1.0083,1.0083,0,1.007,1.007,1.007,1.0063,1.0063,1.0063,1.0063,1.0046,1.0046,1.0045,0,0,0,0,0,0,0,0,0,0,0,0,0,1.0103,1.0102,1.0083,1.0083,1.0083,1.007,1.007,1.0069,1.0063,1.0063,1.0063,1.0063,1.0046,1.0046,1.0045,0,0,0,0,0,0,0,0,0,0,0,0,0,1.0092,1.0102,1.0083,1.0078,1.0078,1.007,1.007,1.0069,1.0063,1.0063,1.0063,1.0063,1.0047,1.0046,1.0045,1.0041,0,0,1.0043,1.0043,0,0,0,0,0,0,0,0,1.0093,1.0091,1.0079,1.0079,1.0078,1.0068,1.007,1.006,1.0063,1.0069,1.0063,1.0063,1.0053,1.0052,1.0049,1.004,1.0039,1.0043,1.0043,1.0042,1.0042,0,0,0,0,0,0,0,1.0093,1.0092,1.0078,1.0079,1.0078,1.0076,1.0075,1.0068,1.0061,1.0068,1.0068,1.0066,1.0053,1.005,1.0049,1.0039,1.0043,1.0043,1.0042,1.0042,1.0027,1.0027,0,0,0,0,0,0,1.0095,1.0093,1.0078,1.0077,1.0086,1.0076,1.0074,1.0071,1.0061,1.0059,1.0066,1.0066,1.0051,1.005,1.0048,1.0044,1.0042,1.0042,1.0041,1.0027,1.0027,1.0027,0,0,0,0,0,0,1.0096,1.0094,1.0079,1.0085,1.0083,1.0076,1.0072,1.0071,1.0068,1.006,1.0058,1.0065,1.0051,1.0049,1.0043,1.0043,1.0041,1.0041,1.0027,1.0027,1.0027,1.0034,0,0,0,0,0,0,1.0096,1.0094,1.0092,1.0085,1.0083,1.0074,1.0072,1.0071,1.0067,1.0067,1.0058,1.0056,1.0051,1.0044,1.0043,1.0042,1.004,1.0027,1.0027,1.0027,1.0033,1.0034,1.0034,0,0,0,0,0,1.0097,1.0093,1.0092,1.009,1.008,1.0074,1.0073,1.0068,1.0067,1.0065,1.0061,1.0057,1.0044,1.0044,1.0042,1.0041,1.0027,1.0027,1.0027,1.0033,1.0034,1.0034,0,0,0,0,0,0,1.0099,1.0092,1.0091,1.0085,1.008,1.0073,1.007,1.0068,1.0063,1.0062,1.0056,1.0054,1.0049,1.0044,1.0045,1.0037,1.0035,1.0035,1.004,1.0041,1.0041,1.0042,1.004,0,0,0,0,0,1.0099,1.0095,1.0089,1.0085,1.0083,1.0077,1.0074,1.0071,1.0066,1.0063,1.0058,1.0052,1.0047,1.0044,1.0038,1.0033,1.0032,1.0032,1.0032,1.0033,1.0032,1.0031,1.0032,1.0028,1.0028,1.0028,0,0,1.0098,1.0094,1.0092,1.0085,1.0081,1.0078,1.0075,1.0071,1.0068,1.0062,1.0057,1.0053,1.0047,1.0042,1.0039,1.0038,1.0033,1.0033,1.0033,1.0032,1.0031,1.0032,1.0032,1.0028,1.0028,1.0028,0,0,1.0095,1.0092,1.0088,1.0085,1.008,1.0077,1.0077,1.0071,1.0068,1.0063,1.006,1.0056,1.0047,1.0043,1.004,1.004,1.0036,1.0038,1.004,1.0039,1.004,1.004,1.0041,1.0041,1.0038,1.0038,1.0038,0,1.0095,1.009,1.0086,1.0083,1.0081,1.0078,1.0075,1.0072,1.0065,1.0063,1.0062,1.0053,1.0048,1.0043,1.0044,1.0041,1.004,1.0039,1.004,1.004,1.004,1.0041,1.0041,1.0038,1.0038,1.0038,1.0038,0,1.009,1.0087,1.0085,1.008,1.0078,1.0074,1.0071,1.0069,1.0067,1.0064,1.006,1.0055,1.005,1.0048,1.0045,1.0044,1.0043,1.0041,1.0039,1.0041,1.0042,1.0042,1.0039,1.0039,1.0038,1.0038,0,0,1.0085,1.0082,1.0081,1.008,1.0076,1.0074,1.0071,1.0068,1.0066,1.0062,1.0061,1.0055,1.0054,1.005,1.0047,1.0046,1.0049,1.0045,1.0045,1.0046,1.0048,1.005,1.005,1.0047,1.0047,1.0047,1.0049,0,1.0082,1.0079,1.0077,1.0074,1.0072,1.007,1.0068,1.0066,1.0064,1.0062,1.0059,1.0056,1.0054,1.0052,1.0052,1.0048,1.0049,1.0048,1.0045,1.0045,1.0047,1.0051,1.0052,1.0054,1.0049,1.0049,1.0049,0,1.0078,1.0076,1.0073,1.0072,1.0071,1.0069,1.0067,1.0065,1.0063,1.0062,1.006,1.0058,1.0056,1.0054,1.0052,1.0052,1.0051,1.0049,1.0049,1.0049,1.0047,1.005,1.0054,1.0055,1.005,1.005,1.0049,0,1.0076,1.0073,1.0072,1.0071,1.0069,1.0068,1.0067,1.0065,1.0064,1.0062,1.0062,1.0059,1.0058,1.0056,1.0054,1.0053,1.0052,1.005,1.0052,1.0052,1.0051,1.0051,1.0055,1.005,1.005,1.005,1.005,0,1.0073,1.0071,1.0071,1.007,1.0069,1.0068,1.0067,1.0066,1.0065,1.0064,1.0062,1.0061,1.0058,1.0057,1.0055,1.0055,1.0054,1.0053,1.0052,1.0053,1.0053,1.0052,1.0052,1.005,1.005,1.005,1.005,0,1.007,1.007,1.0069,1.0068,1.0068,1.0068,1.0067,1.0067,1.0066,1.0065,1.0065,1.0063,1.0062,1.006,1.0058,1.0057,1.0057,1.0055,1.0058,1.0057,1.0059,1.0059,1.0063,1.0064,1.0058,1.0058,1.0058,0,1.0068,1.0067,1.0068,1.0068,1.0068,1.0067,1.0067,1.0067,1.0066,1.0066,1.0065,1.0065,1.0064,1.0063,1.0061,1.006,1.0059,1.0061,1.0059,1.0061,1.006,1.0061,1.0061,1.0061,1.0061,1.0061,1.0061,0,1.0065,1.0066,1.0065,1.0066,1.0067,1.0067,1.0067,1.0067,1.0067,1.0067,1.0067,1.0066,1.0066,1.0066,1.0065,1.0064,1.0063,1.0062,1.0063,1.0063,1.0065,1.0065,1.0059,1.0062,1.0062,1.0062,1.0062,1.0062,1.0062,1.0063,1.0064,1.0065,1.0066,1.0066,1.0067,1.0067,1.0067,1.0068,1.0068,1.0068,1.0068,1.0068,1.0067,1.0068,1.0067,1.0067,1.0067,1.0067,1.0068,1.0065,1.0068,1.0068,1.0068,1.0068,1.0068,0,1.006,1.0061,1.0062,1.0064,1.0065,1.0066,1.0067,1.0067,1.0068,1.0069,1.0069,1.007,1.0071,1.0071,1.0072,1.0072,1.0072,1.0072,1.0072,1.0072,1.0068,1.0068,1.0073,1.0073,1.0073,1.0073,1.0073,1.0073,1.0058,1.0059,1.0061,1.0063,1.0064,1.0066,1.0067,1.0068,1.0069,1.0071,1.0072,1.0072,1.0073,1.0075,1.0076,1.0076,1.0076,1.0077,1.0077,1.0073,1.0072,1.0072,1.0072,1.0077,1.0077,1.0081,1.0081,1.0081]},{"header":{"parameterUnit":"m.s-1","parameterCategory":1,"la1":30.2991,"la2":30.254,"lo1":-89.0895,"lo2":-89.0444,"dy":0.0017,"dx":0.0017,"nx":28,"ny":28,"refTime":"2023-10-21T21:00:00:Z","depth":0,"parameterNumber":3,"parameterNumberName":"V-component_of_WINDS"},"data":[0,0,0,0,0,0,0,0,0,0,0,0,0,0,0,0,0,0,0,0,0,0,0,0,0,0,0,0,0,0,0,0,0,0,0,0,0,0,0,0,0,0,0,0,0,0,0,0,0,0,0,0,0,0,0,0,0,0,0.5,0.4999,0,0.4927,0.4926,0.4925,0.4884,0.4884,0.4884,0.4883,0.4807,0.4805,0.4803,0,0,0,0,0,0,0,0,0,0,0,0,0,0.5103,0.5101,0.5,0.4999,0.4998,0.4927,0.4926,0.4925,0.4884,0.4884,0.4884,0.4883,0.4808,0.4806,0.4803,0,0,0,0,0,0,0,0,0,0,0,0,0,0.5047,0.5101,0.5,0.4969,0.4966,0.4927,0.4926,0.4925,0.4884,0.4884,0.4884,0.4883,0.4809,0.4806,0.4803,0.4789,0,0,0.4794,0.4793,0,0,0,0,0,0,0,0,0.505,0.5043,0.4975,0.4971,0.4967,0.4914,0.4934,0.4879,0.4884,0.4915,0.4883,0.4883,0.4843,0.4837,0.4824,0.4786,0.4782,0.4794,0.4792,0.4791,0.479,0,0,0,0,0,0,0,0.5054,0.5046,0.4971,0.4974,0.4969,0.4958,0.495,0.4924,0.4881,0.4912,0.4909,0.4901,0.4841,0.4827,0.4822,0.4781,0.4794,0.4791,0.479,0.4789,0.4727,0.4727,0,0,0,0,0,0,0.5063,0.505,0.4974,0.4969,0.5009,0.4957,0.4948,0.4932,0.4881,0.4873,0.4901,0.4899,0.4832,0.4825,0.4819,0.4799,0.4791,0.4788,0.4787,0.4727,0.4727,0.4727,0,0,0,0,0,0,0.5065,0.5057,0.4976,0.5008,0.4997,0.4955,0.4938,0.493,0.4916,0.4873,0.4865,0.4895,0.4831,0.4823,0.4797,0.4796,0.4787,0.4784,0.4727,0.4727,0.4727,0.4759,0,0,0,0,0,0,0.5069,0.5058,0.5053,0.5009,0.4996,0.4956,0.4937,0.4929,0.4911,0.4908,0.4865,0.4857,0.483,0.4801,0.4794,0.4792,0.4782,0.4727,0.4727,0.4727,0.4758,0.4761,0.4763,0,0,0,0,0,0.5072,0.5064,0.5053,0.5044,0.4989,0.4956,0.4949,0.4919,0.4912,0.4906,0.4878,0.4859,0.4797,0.4799,0.479,0.4787,0.4727,0.4727,0.4727,0.4757,0.476,0.4763,0,0,0,0,0,0,0.5109,0.5058,0.5044,0.5022,0.4994,0.4949,0.4941,0.4923,0.4896,0.4894,0.4857,0.4847,0.4825,0.4803,0.4806,0.4771,0.476,0.4758,0.4786,0.4788,0.479,0.4796,0.478,0,0,0,0,0,0.5115,0.5093,0.505,0.5034,0.5021,0.4983,0.4968,0.4947,0.4916,0.4904,0.4874,0.4845,0.4819,0.4802,0.4776,0.4755,0.4745,0.4749,0.4751,0.4753,0.4752,0.4739,0.474,0.4728,0.4728,0.4728,0,0,0.5126,0.5095,0.5084,0.5041,0.5016,0.4994,0.4974,0.4951,0.4934,0.4901,0.4874,0.4851,0.4816,0.4792,0.478,0.4773,0.4753,0.4753,0.4755,0.4753,0.4739,0.474,0.4741,0.4728,0.4728,0.4728,0,0,0.5135,0.511,0.5094,0.507,0.5033,0.5009,0.5005,0.4963,0.4947,0.492,0.4893,0.4873,0.4829,0.4804,0.4786,0.4785,0.4767,0.4778,0.4789,0.4777,0.4778,0.4778,0.4778,0.4778,0.4777,0.4777,0.4777,0,0.5153,0.5119,0.5088,0.5067,0.5048,0.5017,0.5,0.4978,0.4935,0.4923,0.4916,0.486,0.4834,0.4804,0.4804,0.479,0.4784,0.4782,0.478,0.478,0.4781,0.4779,0.4779,0.4779,0.4779,0.4778,0.4778,0,0.5143,0.512,0.5112,0.5071,0.5051,0.5033,0.4998,0.4982,0.4963,0.4938,0.4911,0.4878,0.4845,0.4836,0.4817,0.4803,0.48,0.4787,0.4775,0.4784,0.4782,0.4781,0.4781,0.478,0.478,0.478,0,0,0.5173,0.5115,0.5112,0.5093,0.5051,0.5032,0.5012,0.4979,0.4966,0.4937,0.4918,0.4882,0.487,0.4849,0.4827,0.4816,0.4817,0.4804,0.4803,0.4807,0.4799,0.4809,0.4809,0.4804,0.4804,0.4804,0.4802,0,0.5175,0.5138,0.5109,0.5082,0.506,0.503,0.5012,0.4983,0.496,0.4938,0.4912,0.4886,0.4872,0.486,0.4848,0.482,0.4815,0.4819,0.4786,0.4785,0.4796,0.4808,0.4818,0.4817,0.4801,0.4801,0.4801,0,0.5173,0.5145,0.5117,0.5076,0.5066,0.505,0.5018,0.4997,0.4964,0.4947,0.4925,0.4902,0.4878,0.4869,0.4836,0.4839,0.4824,0.4808,0.4807,0.4803,0.4793,0.4803,0.4816,0.4816,0.4799,0.48,0.48,0,0.5197,0.5152,0.5129,0.5114,0.5066,0.5056,0.5036,0.5002,0.4984,0.4956,0.4944,0.4913,0.4896,0.4872,0.4841,0.4838,0.4811,0.4799,0.4796,0.4797,0.4792,0.4793,0.4803,0.4783,0.4783,0.4783,0.4783,0,0.5202,0.5185,0.5139,0.5125,0.5105,0.5072,0.5053,0.503,0.5001,0.4981,0.4953,0.4935,0.4896,0.4873,0.4848,0.4824,0.4817,0.4803,0.4796,0.4805,0.4807,0.4794,0.4793,0.4783,0.4783,0.4783,0.4783,0,0.5225,0.5194,0.5167,0.5124,0.5112,0.51,0.5063,0.5047,0.5023,0.4998,0.499,0.4951,0.4923,0.489,0.485,0.4834,0.4811,0.4802,0.4823,0.4819,0.4818,0.4818,0.482,0.4818,0.48,0.4801,0.4801,0,0.523,0.5217,0.5173,0.5158,0.5138,0.5114,0.5096,0.5062,0.5044,0.5006,0.4995,0.4964,0.4938,0.4894,0.4862,0.4831,0.4821,0.4823,0.4816,0.4825,0.482,0.4821,0.4819,0.4825,0.4826,0.4826,0.4826,0,0.5243,0.5228,0.5203,0.5172,0.5152,0.5126,0.5099,0.5088,0.5049,0.503,0.5,0.498,0.494,0.491,0.4875,0.4853,0.4833,0.4829,0.4827,0.4835,0.4847,0.484,0.4828,0.4829,0.4829,0.4828,0.4828,0.4828,0.5256,0.5243,0.521,0.5183,0.5159,0.5134,0.5118,0.5091,0.5066,0.5031,0.5013,0.4984,0.4951,0.4902,0.4881,0.4857,0.4851,0.4847,0.4846,0.4846,0.4848,0.4851,0.4851,0.4851,0.4851,0.4851,0.4851,0,0.5267,0.5244,0.522,0.5183,0.5162,0.5145,0.5114,0.5097,0.5072,0.5043,0.5018,0.4984,0.4955,0.492,0.4888,0.4876,0.4866,0.4869,0.4869,0.4864,0.4856,0.4861,0.4878,0.4878,0.4878,0.4878,0.4878,0.4878,0.527,0.5246,0.5227,0.5191,0.5168,0.514,0.5124,0.5101,0.5077,0.5041,0.5016,0.4994,0.4963,0.4929,0.4901,0.4891,0.4881,0.4886,0.4874,0.4867,0.4865,0.4863,0.4867,0.4884,0.4884,0.4884,0.4884,0.4884]}]]